Weather reports worldwide

Advertisment
Ahaus, Germany (10309): temperature & dewpoint: 10.07.2018 18:00:00 - 16.07.2018 18:00:00 (CEST)Ahaus, Germany (10309): temperature 5cm & temperature -5cm: 10.07.2018 18:00:00 - 16.07.2018 18:00:00 (CEST)Ahaus, Germany (10309): temperature -20cm & temperature -100cm: 10.07.2018 18:00:00 - 16.07.2018 18:00:00 (CEST)Ahaus, Germany (10309): wind speed & gusts: 10.07.2018 18:00:00 - 16.07.2018 18:00:00 (CEST)Ahaus, Germany (10309): wind direction: 10.07.2018 18:00:00 - 16.07.2018 18:00:00 (CEST)Ahaus, Germany (10309): reduced air pressure: 10.07.2018 18:00:00 - 16.07.2018 18:00:00 (CEST)Ahaus, Germany (10309): visibility: 10.07.2018 18:00:00 - 16.07.2018 18:00:00 (CEST)Ahaus, Germany (10309): sunshine duration: 10.07.2018 18:00:00 - 16.07.2018 18:00:00 (CEST)Ahaus, Germany (10309): precipitation: 10.07.2018 18:00:00 - 16.07.2018 18:00:00 (CEST)
Date & Time tt [°C] td [°C] tt 5cm [°C] tt -5cm [°C] tt -20cm [°C] tt -100cm [°C] ff [km/h] ff [kn] fx [km/h] fx [kn] dd ppp [hPa] vv [km] sd [min] rr [mm]
16.07.2018 18:00:00 28,7 7,3 34,8 35,3 27,3 19,4 9 5 19 11 NNE 1011,7 40 60 0,0
16.07.2018 17:00:00 28,6 7,5 33,9 35,7 26,7 19,4 10 5 21 11 NW 1011,8 30 60 0,0
16.07.2018 16:00:00 28,6 6,9 37,5 35,5 26,1 19,4 9 5 24 13 NE 1012,2 39 60 0,0
16.07.2018 15:00:00 28,2 7,8 38,3 35,0 25,4 19,4 11 6 22 12 NNE 1012,8 29 60 0,0
16.07.2018 14:00:00 27,7 8,9 34,9 33,8 24,7 19,4 9 5 20 11 SSE 1013,3 30 60 0,0
16.07.2018 13:00:00 26,8 9,0 35,5 32,0 24,1 19,4 8 5 24 13 E 1013,8 31 60 0,0
16.07.2018 12:00:00 25,9 10,3 35,3 29,9 23,6 19,4 11 6 23 12 NNE 1014,0 36 60 0,0
16.07.2018 11:00:00 24,8 10,6 32,0 27,8 23,1 19,4 9 5 22 12 ENE 1014,1 27 60 0,0
16.07.2018 10:00:00 23,7 11,3 30,7 25,5 22,9 19,3 8 4 14 7 NE 1014,3 25 60 0,0
16.07.2018 09:00:00 21,0 12,1 25,9 23,2 22,9 19,3 7 4 11 6 NE 1014,7 32 60 0,0
16.07.2018 08:00:00 18,1 11,8 21,6 21,4 23,0 19,3 6 3 10 5 NE 1014,8 25 60 0,0
16.07.2018 07:00:00 15,7 11,3 16,2 20,3 23,3 19,3 5 3 8 4 ENE 1015,0 16 52 0,0
16.07.2018 06:00:00 14,1 11,2 11,3 20,3 23,7 19,3 5 3 10 5 ENE 1015,1 15 0 0,0
16.07.2018 05:00:00 14,3 11,3 11,6 20,7 24,1 19,3 5 3 9 5 ENE 1015,1 19 0 0,0
16.07.2018 04:00:00 12,8 10,7 9,4 21,4 24,5 19,3 4 2 6 3 ENE 1015,5 22 0 0,0
16.07.2018 03:00:00 14,6 10,9 10,5 22,1 24,9 19,3 4 2 8 4 ENE 1015,8 27 0 0,0
16.07.2018 02:00:00 16,1 11,3 11,8 22,8 25,4 19,3 6 3 10 5 NE 1016,0 36 0 0,0
16.07.2018 01:00:00 14,8 11,2 11,2 23,7 25,8 19,3 4 2 6 3 ENE 1016,1 51 0 0,0
16.07.2018 00:00:00 16,0 10,9 12,3 24,8 26,2 19,3 5 3 7 4 ENE 1016,1 54 0 0,0
15.07.2018 23:00:00 18,3 10,5 14,0 26,2 26,6 19,3 5 3 8 4 ENE 1015,8 65 0 0,0
15.07.2018 22:00:00 21,8 9,4 17,6 28,0 26,9 19,3 5 3 13 7 ENE 1015,6 66 16 0,0
15.07.2018 21:00:00 24,5 9,4 24,4 29,8 27,0 19,3 9 5 24 13 ENE 1015,1 64 60 0,0
15.07.2018 20:00:00 25,9 8,9 28,6 31,5 27,0 19,3 9 5 23 12 NE 1015,0 66 60 0,0
15.07.2018 19:00:00 26,7 8,1 30,9 32,9 26,8 19,2 10 5 19 11 NE 1015,0 41 60 0,0
15.07.2018 18:00:00 26,9 7,4 32,4 33,7 26,4 19,2 11 6 25 14 NE 1015,4 34 60 0,0
15.07.2018 17:00:00 26,7 7,2 32,8 34,5 25,9 19,2 12 6 23 12 NE 1015,8 16 60 0,0
15.07.2018 16:00:00 26,4 6,8 34,1 34,5 25,3 19,2 8 5 20 11 E 1016,1 37 60 0,0
15.07.2018 15:00:00 25,9 6,4 33,0 33,8 24,6 19,2 11 6 27 15 E 1016,8 35 60 0,0
15.07.2018 14:00:00 24,9 7,6 33,6 32,5 23,9 19,2 10 5 23 13 NE 1017,3 37 60 0,0
15.07.2018 13:00:00 24,7 7,8 33,1 31,0 23,3 19,2 12 7 23 12 NE 1017,9 42 60 0,0
15.07.2018 12:00:00 22,7 9,0 30,5 29,0 22,7 19,2 11 6 21 11 ENE 1018,3 26 60 0,0
15.07.2018 11:00:00 21,3 10,2 28,0 26,7 22,3 19,2 9 5 18 10 ENE 1018,5 40 60 0,0
15.07.2018 10:00:00 20,3 11,2 26,8 24,3 22,1 19,2 10 5 19 11 NE 1018,6 28 60 0,0
15.07.2018 09:00:00 18,5 11,4 22,6 22,0 22,1 19,2 8 4 13 7 ENE 1018,7 35 60 0,0
15.07.2018 08:00:00 15,6 11,3 18,5 20,3 22,3 19,2 8 5 11 6 ENE 1018,7 30 60 0,0
15.07.2018 07:00:00 13,6 10,9 14,2 19,2 22,6 19,2 5 3 9 5 NE 1018,6 19 53 0,0
15.07.2018 06:00:00 10,9 10,1 8,4 19,1 23,0 19,1 2 1 6 4 ENE 1018,7 16 0 0,0
15.07.2018 05:00:00 11,1 10,4 7,6 19,7 23,4 19,1 3 2 4 2 ENE 1019,0 20 0 0,0
15.07.2018 04:00:00 11,4 10,4 8,4 20,4 23,8 19,1 3 2 9 5 ENE 1019,2 25 0 0,0
15.07.2018 03:00:00 12,4 10,9 9,1 21,1 24,2 19,1 3 1 8 4 E 1019,3 27 0 0,0
15.07.2018 02:00:00 13,9 11,3 10,7 21,9 24,7 19,1 6 3 10 5 NNE 1019,4 36 0 0,0
15.07.2018 01:00:00 15,0 11,5 11,0 22,9 25,1 19,1 4 2 14 7 NNE 1019,5 44 0 0,0
15.07.2018 00:00:00 17,3 11,4 14,4 23,9 25,6 19,1 8 4 13 7 NNE 1019,4 54 0 0,0
14.07.2018 23:00:00 18,4 11,3 14,7 25,1 26,0 19,1 9 5 12 6 NNE 1019,0 57 0 0,0
14.07.2018 22:00:00 19,6 10,8 15,0 26,9 26,3 19,1 6 3 13 7 NE 1018,8 70 18 0,0
14.07.2018 21:00:00 22,4 10,2 23,3 28,8 26,4 19,1 8 4 18 10 NNE 1018,6 70 60 0,0
14.07.2018 20:00:00 23,5 10,0 27,1 30,6 26,4 19,1 11 6 22 12 NNE 1018,6 59 60 0,0
14.07.2018 19:00:00 24,3 10,1 30,0 32,2 26,2 19,1 14 7 26 14 N 1018,6 50 60 0,0
14.07.2018 18:00:00 24,4 10,0 31,0 33,3 25,8 19,1 10 6 24 13 N 1018,6 28 60 0,0
14.07.2018 17:00:00 23,9 9,6 32,1 33,9 25,3 19,1 14 8 24 13 N 1019,0 29 60 0,0
14.07.2018 16:00:00 24,0 10,3 32,1 33,8 24,7 19,1 10 5 20 11 N 1019,3 23 60 0,0
14.07.2018 15:00:00 23,6 11,1 31,7 33,1 24,0 19,1 10 6 22 12 NW 1019,9 29 58 0,0
14.07.2018 14:00:00 22,6 11,8 32,0 32,0 23,3 19,1 10 5 20 11 NNW 1020,4 26 53 0,0
14.07.2018 13:00:00 21,5 12,3 32,5 30,2 22,7 19,1 9 5 19 10 N 1020,9 19 54 0,0
14.07.2018 12:00:00 20,1 11,8 30,0 28,3 22,1 19,1 8 4 16 9 N 1021,3 23 59 0,0
14.07.2018 11:00:00 19,6 12,1 27,4 25,6 21,8 19,1 10 6 19 10 NNE 1021,6 24 59 0,0
14.07.2018 10:00:00 17,4 11,8 22,2 23,2 21,6 19,1 13 7 21 11 ENE 1021,8 23 39 0,0
14.07.2018 09:00:00 16,3 12,0 20,4 21,1 21,7 19,1 11 6 22 12 NE 1021,8 16 36 0,0
14.07.2018 08:00:00 15,1 12,3 16,7 20,3 21,8 19,1 6 3 12 6 NE 1021,2 12 46 0,0
14.07.2018 07:00:00 14,2 12,2 14,8 19,5 22,1 19,1 5 3 10 5 NE 1020,8 11 12 0,0
14.07.2018 06:00:00 13,4 12,1 13,0 19,5 22,4 19,1 4 2 8 4 NE 1020,7 11 0 0,0
14.07.2018 05:00:00 13,4 11,9 12,2 19,8 22,7 19,1 5 3 10 5 NNE 1021,1 12 0 0,0
14.07.2018 04:00:00 13,5 11,9 12,4 20,1 23,1 19,1 4 2 9 5 ENE 1021,2 15 0 0,0
14.07.2018 03:00:00 14,1 12,0 12,1 20,7 23,5 19,1 6 3 14 8 NNE 1021,2 18 0 0,0
14.07.2018 02:00:00 14,8 12,2 13,2 21,5 23,9 19,1 9 5 14 7 NNE 1021,3 19 0 0,0
14.07.2018 01:00:00 15,5 12,5 13,8 22,3 24,3 19,1 8 5 20 11 NNE 1021,3 20 0 0,0
14.07.2018 00:00:00 16,9 13,1 15,3 23,3 24,7 19,1 11 6 18 10 NNE 1021,0 23 0 0,0
13.07.2018 23:00:00 18,4 13,5 16,6 24,6 25,1 19,1 9 5 21 12 N 1020,6 31 0 0,0
13.07.2018 22:00:00 20,5 13,6 19,1 26,2 25,3 19,1 14 8 22 12 N 1020,0 35 0 0,0
13.07.2018 21:00:00 22,2 13,5 22,0 28,0 25,5 19,1 9 5 18 10 NNE 1019,5 41 11 0,0
13.07.2018 20:00:00 24,1 12,4 26,5 30,1 25,4 19,1 11 6 18 10 N 1019,2 37 48 0,0
13.07.2018 19:00:00 25,4 11,4 30,5 31,6 25,1 19,1 13 7 21 11 N 1019,3 37 51 0,0
13.07.2018 18:00:00 25,6 10,9 33,2 32,5 24,7 19,2 9 5 24 13 N 1019,6 38 57 0,0
13.07.2018 17:00:00 24,9 11,2 31,7 33,1 24,2 19,2 13 7 22 12 N 1020,0 34 55 0,0
13.07.2018 16:00:00 24,8 11,2 32,4 33,1 23,5 19,2 9 5 21 11 NNW 1020,2 25 56 0,0
13.07.2018 15:00:00 24,6 12,2 34,6 32,5 22,7 19,2 13 7 31 17 NNW 1020,6 28 60 0,0
13.07.2018 14:00:00 23,0 10,9 33,1 31,3 21,9 19,2 9 5 18 10 N 1021,1 27 60 0,0
13.07.2018 13:00:00 21,5 11,9 31,3 29,3 21,1 19,2 8 5 18 10 N 1021,3 27 60 0,0
13.07.2018 12:00:00 19,9 11,8 29,5 26,7 20,5 19,2 6 3 18 10 NNW 1021,5 31 60 0,0
13.07.2018 11:00:00 18,2 12,1 27,8 23,6 20,1 19,2 9 5 17 9 NNW 1021,6 22 57 0,0
13.07.2018 10:00:00 16,3 12,8 20,7 20,4 20,0 19,2 7 4 16 9 N 1021,6 14 2 0,0
13.07.2018 09:00:00 14,5 13,4 18,3 18,9 20,0 19,2 4 2 8 4 N 1021,4 8 0 0,0
13.07.2018 08:00:00 13,2 13,1 14,7 18,0 20,1 19,2 4 2 6 4 NW 1021,4 1,4 0 0,0
13.07.2018 07:00:00 12,8 12,8 13,3 17,1 20,4 19,2 4 2 6 3 WSW 1021,1 0,3 0 0,0
13.07.2018 06:00:00 11,0 10,8 9,1 16,7 20,7 19,2 5 3 7 4 WNW 1020,9 2,1 0 0,0
13.07.2018 05:00:00 10,5 10,1 8,1 17,2 21,1 19,2 5 3 7 4 NW 1020,6 6 0 0,0
13.07.2018 04:00:00 11,1 10,7 8,0 17,8 21,5 19,2 4 2 7 4 W 1020,5 10 0 0,0
13.07.2018 03:00:00 12,3 11,5 8,6 18,5 21,8 19,3 5 3 7 4 NNW 1020,4 14 0 0,0
13.07.2018 02:00:00 14,2 12,5 10,2 19,4 22,2 19,3 6 3 10 5 N 1020,2 18 0 0,0
13.07.2018 01:00:00 15,3 13,0 12,6 20,3 22,6 19,3 7 4 11 6 NNW 1020,2 21 0 0,0
13.07.2018 00:00:00 17,0 13,8 12,9 21,2 22,9 19,3 7 4 10 6 NNW 1020,1 27 0 0,0
12.07.2018 23:00:00 18,7 14,2 16,3 22,4 23,1 19,3 8 5 17 9 NW 1019,6 31 0 0,0
12.07.2018 22:00:00 20,9 14,1 19,3 23,8 23,3 19,3 13 7 29 16 NW 1019,1 35 14 0,0
12.07.2018 21:00:00 23,6 14,1 24,7 24,8 23,4 19,3 11 6 23 12 NW 1018,2 42 49 0,0
12.07.2018 20:00:00 23,4 13,1 23,2 25,2 23,5 19,3 7 4 19 11 NNW 1017,8 43 0 0,0
12.07.2018 19:00:00 23,8 12,9 24,1 26,4 23,5 19,4 9 5 23 13 NW 1017,5 47 3 0,0
12.07.2018 18:00:00 25,8 14,5 29,4 27,8 23,4 19,4 7 4 14 7 NE 1017,5 45 27 0,0
12.07.2018 17:00:00 23,2 15,7 21,7 29,3 23,0 19,4 8 5 20 11 N 1017,6 22 7 0,3
12.07.2018 16:00:00 24,9 13,1 28,9 31,1 22,3 19,4 12 6 23 12 NW 1017,8 45 39 0,0
12.07.2018 15:00:00 25,2 13,2 35,0 31,0 21,4 19,4 10 5 23 12 NNW 1018,0 25 60 0,0
12.07.2018 14:00:00 24,1 14,5 31,9 28,9 20,6 19,4 8 4 20 11 NNW 1018,4 21 59 0,0
12.07.2018 13:00:00 21,8 15,5 30,4 26,0 20,0 19,4 9 5 22 12 NNW 1018,7 19 60 0,0
12.07.2018 12:00:00 19,1 15,0 24,9 22,5 19,7 19,4 11 6 19 10 WNW 1018,9 13 20 0,0
12.07.2018 11:00:00 18,0 14,7 23,7 20,4 19,5 19,4 10 5 20 11 NNW 1018,9 10 3 0,0
12.07.2018 10:00:00 16,4 14,8 18,2 19,5 19,4 19,5 9 5 15 8 WNW 1018,7 6 0 0,0
12.07.2018 09:00:00 15,5 14,5 16,9 18,6 19,4 19,5 9 5 13 7 NW 1018,4 6 0 0,0
12.07.2018 08:00:00 14,6 14,1 15,5 17,5 19,5 19,5 7 4 13 7 NW 1018,0 3,6 17 0,0
12.07.2018 07:00:00 13,6 13,2 13,8 16,7 19,8 19,5 8 4 13 7 NW 1017,6 3,7 8 0,0
12.07.2018 06:00:00 12,7 12,4 10,9 16,8 20,0 19,5 2 1 19 10 WNW 1017,5 3,4 0 0,0
12.07.2018 05:00:00 13,2 13,0 12,0 17,2 20,2 19,5 3 1 9 5 N 1017,3 3,3 0 0,0
12.07.2018 04:00:00 14,1 13,3 12,4 18,0 20,4 19,5 3 2 10 5 NW 1017,4 7 0 0,0
12.07.2018 03:00:00 15,0 13,8 14,5 18,4 20,6 19,5 5 3 10 5 NW 1017,5 9 0 0,0
12.07.2018 02:00:00 15,5 14,3 14,8 18,8 20,8 19,6 6 4 11 6 NNW 1017,4 11 0 0,0
12.07.2018 01:00:00 15,9 15,3 15,6 19,1 21,0 19,6 4 2 9 5 WNW 1017,4 8 0 0,0
12.07.2018 00:00:00 16,0 15,7 15,8 19,3 21,2 19,6 3 1 19 10 W 1017,3 2,5 0 0,0
11.07.2018 23:00:00 15,8 15,5 14,9 19,6 21,4 19,6 3 2 6 3 WNW 1017,3 0,5 0 0,0
11.07.2018 22:00:00 16,7 16,1 16,3 20,3 21,6 19,6 4 2 10 5 W 1017,1 5 0 0,0
11.07.2018 21:00:00 17,1 16,0 16,9 20,9 21,7 19,6 7 4 30 16 NNW 1016,9 7 0 1,5
11.07.2018 20:00:00 20,1 13,9 19,6 21,9 21,8 19,6 10 5 19 10 N 1016,2 32 5 0,0
11.07.2018 19:00:00 19,5 14,4 19,2 22,2 21,8 19,6 11 6 26 14 N 1016,1 30 0 0,0
11.07.2018 18:00:00 19,0 16,1 19,9 22,4 21,9 19,6 6 4 11 6 N 1016,0 17 5 0,0
11.07.2018 17:00:00 17,4 15,7 17,5 22,4 21,9 19,7 7 4 15 8 ENE 1016,1 12 0 1,1
11.07.2018 16:00:00 18,9 16,5 18,8 23,6 21,9 19,7 4 2 23 12 W 1016,1 17 0 0,9
11.07.2018 15:00:00 18,8 15,4 18,1 25,1 21,6 19,7 11 6 36 20 NNW 1016,4 9 3 0,2
11.07.2018 14:00:00 20,5 13,4 24,5 24,9 21,3 19,7 16 8 26 14 NNW 1016,3 29 7 0,0
11.07.2018 13:00:00 19,8 13,2 25,5 24,4 21,0 19,7 16 9 29 15 NNW 1016,8 24 12 0,0
11.07.2018 12:00:00 19,1 12,9 22,4 23,9 20,6 19,7 15 8 29 15 NW 1017,2 31 18 0,0
11.07.2018 11:00:00 18,0 12,7 24,7 22,5 20,3 19,7 8 4 29 15 NW 1017,4 32 16 0,0
11.07.2018 10:00:00 18,7 11,7 24,8 22,1 20,0 19,7 12 6 24 13 N 1017,5 35 45 0,0
11.07.2018 09:00:00 17,0 11,2 23,2 19,7 19,9 19,7 5 3 9 5 NNW 1018,0 14 60 0,0
11.07.2018 08:00:00 13,9 10,9 16,6 17,9 20,0 19,7 6 4 11 6 WNW 1017,9 18 60 0,0
11.07.2018 07:00:00 12,4 10,2 13,1 16,6 20,2 19,7 5 3 8 4 NNE 1017,6 19 57 0,0
11.07.2018 06:00:00 8,7 8,1 6,6 16,4 20,5 19,7 5 3 19 10 NNW 1017,6 11 0 0,0
11.07.2018 05:00:00 9,4 8,6 5,7 16,8 20,8 19,8 5 3 10 5 NNW 1017,7 13 0 0,0
11.07.2018 04:00:00 9,7 8,8 6,2 17,3 21,1 19,8 4 2 8 5 NNE 1017,6 16 0 0,0
11.07.2018 03:00:00 11,8 10,0 7,8 17,8 21,4 19,8 7 4 10 5 N 1017,7 24 0 0,0
11.07.2018 02:00:00 12,2 9,4 7,8 18,4 21,7 19,8 5 3 12 6 NNE 1017,7 36 0 0,0
11.07.2018 01:00:00 13,0 9,2 8,5 19,0 22,0 19,8 6 3 11 6 N 1017,7 57 0 0,0
11.07.2018 00:00:00 12,8 9,2 10,4 19,8 22,3 19,8 5 3 8 4 N 1017,3 55 0 0,0
10.07.2018 23:00:00 14,2 8,8 9,4 20,7 22,6 19,8 6 3 19 10 N 1016,9 64 0 0,0
10.07.2018 22:00:00 16,4 8,6 13,8 21,9 22,8 19,8 9 5 32 17 NNE 1016,4 59 12 0,0
10.07.2018 21:00:00 18,2 8,1 17,6 23,1 22,8 19,8 17 9 39 21 N 1015,6 59 42 0,0
10.07.2018 20:00:00 19,2 8,0 19,9 24,4 22,7 19,8 22 12 41 22 N 1015,0 51 18 0,0
10.07.2018 19:00:00 20,2 8,2 22,9 25,1 22,5 19,8 19 11 37 20 NNE 1014,6 39 38 0,0
10.07.2018 18:00:00 20,8 7,8 26,4 25,1 22,3 19,8 21 11 42 23 N 1014,3 22 35 0,0

tt = temperature
td = dewpoint
tt 5cm = temperature 5cm
tt -5cm = temperature -5cm
tt -20cm = temperature -20cm
tt -100cm = temperature -100cm
ff = wind speed
fx = gusts
dd = wind direction
ppp = reduced air pressure
vv = visibility
sd = sunshine duration
rr = precipitation

Next stations